Stündliche Wetter Jumprava

Heute, 6 März, Samstag

Zeit Temperatur Niederschläge Wind Luftdruck Luftfeuchtigkeit
00:00 -5°C° 0 mm 2 m/S 759 mmHg 69%
01:00 -5°C° 0 mm 2 m/S 759 mmHg 67%
02:00 -4°C° 0 mm 1 m/S 760 mmHg 66%
03:00 -6°C° 0 mm 2 m/S 760 mmHg 69%
04:00 -6°C° 0 mm 2 m/S 759 mmHg 72%
05:00 -6°C° 0 mm 2 m/S 759 mmHg 74%
06:00 -6°C° 0 mm 2 m/S 759 mmHg 74%
07:00 -6°C° 0 mm 2 m/S 759 mmHg 74%
08:00 -6°C° 0 mm 2 m/S 760 mmHg 74%
09:00 -5°C° 0 mm 3 m/S 759 mmHg 66%
10:00 -4°C° 0 mm 3 m/S 759 mmHg 59%
11:00 -3°C° 0 mm 4 m/S 758 mmHg 51%
12:00 -2°C° 0 mm 5 m/S 758 mmHg 51%
13:00 -1°C° 0 mm 5 m/S 757 mmHg 51%
14:00 -1°C° 0 mm 6 m/S 756 mmHg 50%
15:00 -1°C° 0 mm 6 m/S 755 mmHg 50%
16:00 -1°C° 0 mm 6 m/S 754 mmHg 50%
17:00 -1°C° 0 mm 6 m/S 753 mmHg 51%
18:00 -1°C° 0 mm 6 m/S 752 mmHg 57%
19:00 -2°C° 0 mm 6 m/S 751 mmHg 63%
20:00 -2°C° 0 mm 7 m/S 751 mmHg 69%
21:00 -2°C° 0 mm 7 m/S 749 mmHg 74%
22:00 -2°C° 0 mm 6 m/S 748 mmHg 78%
23:00 -2°C° 0 mm 6 m/S 747 mmHg 83%

Morgen, 7 März, Sonntag

Zeit Temperatur Niederschläge Wind Luftdruck Luftfeuchtigkeit
00:00 -2°C° 0.7 mm 6 m/S 747 mmHg 87%
01:00 -3°C° 0.7 mm 7 m/S 746 mmHg 91%
02:00 -3°C° 0.7 mm 7 m/S 746 mmHg 96%
03:00 -4°C° 0.6 mm 6 m/S 746 mmHg 82%
04:00 -5°C° 0.6 mm 5 m/S 746 mmHg 68%
05:00 -5°C° 0.6 mm 5 m/S 746 mmHg 55%
06:00 -6°C° 0 mm 5 m/S 746 mmHg 54%
07:00 -6°C° 0 mm 5 m/S 746 mmHg 53%
08:00 -6°C° 0 mm 5 m/S 746 mmHg 52%
09:00 -5°C° 0 mm 6 m/S 745 mmHg 51%
10:00 -4°C° 0 mm 7 m/S 745 mmHg 49%
11:00 -4°C° 0 mm 8 m/S 745 mmHg 48%
12:00 -4°C° 0.2 mm 8 m/S 744 mmHg 52%
13:00 -5°C° 0.2 mm 8 m/S 744 mmHg 57%
14:00 -5°C° 0.2 mm 8 m/S 744 mmHg 61%
15:00 -5°C° 0.1 mm 8 m/S 744 mmHg 67%
16:00 -6°C° 0.1 mm 8 m/S 744 mmHg 72%
17:00 -7°C° 0.1 mm 8 m/S 744 mmHg 77%
18:00 -7°C° 0.1 mm 7 m/S 745 mmHg 74%
19:00 -8°C° 0.1 mm 6 m/S 746 mmHg 70%
20:00 -7°C° 0.1 mm 5 m/S 747 mmHg 66%
21:00 -7°C° 0 mm 4 m/S 747 mmHg 66%
22:00 -7°C° 0 mm 3 m/S 748 mmHg 67%
23:00 -6°C° 0 mm 2 m/S 748 mmHg 67%

übermorgen, 8 März, Montag

Zeit Temperatur Niederschläge Wind Luftdruck Luftfeuchtigkeit
00:00 -6°C° 0 mm 2 m/S 749 mmHg 68%
01:00 -7°C° 0 mm 2 m/S 749 mmHg 70%
02:00 -7°C° 0 mm 2 m/S 750 mmHg 72%
03:00 -7°C° 0 mm 2 m/S 750 mmHg 75%
04:00 -8°C° 0 mm 3 m/S 750 mmHg 78%
05:00 -8°C° 0 mm 3 m/S 750 mmHg 82%
06:00 -8°C° 0 mm 3 m/S 751 mmHg 79%
07:00 -8°C° 0 mm 3 m/S 752 mmHg 76%
08:00 -9°C° 0 mm 4 m/S 752 mmHg 74%
09:00 -9°C° 0 mm 4 m/S 753 mmHg 70%
10:00 -8°C° 0 mm 4 m/S 753 mmHg 67%
11:00 -8°C° 0 mm 4 m/S 754 mmHg 63%
12:00 -7°C° 0 mm 4 m/S 754 mmHg 60%
13:00 -7°C° 0 mm 4 m/S 755 mmHg 57%
14:00 -5°C° 0 mm 4 m/S 755 mmHg 54%
15:00 -5°C° 0 mm 4 m/S 755 mmHg 54%
16:00 -7°C° 0 mm 4 m/S 755 mmHg 54%
17:00 -7°C° 0 mm 4 m/S 756 mmHg 54%
18:00 -7°C° 0 mm 3 m/S 756 mmHg 57%
19:00 -7°C° 0 mm 3 m/S 757 mmHg 60%
20:00 -7°C° 0 mm 2 m/S 757 mmHg 63%
21:00 -8°C° 0 mm 2 m/S 758 mmHg 66%
22:00 -8°C° 0 mm 2 m/S 758 mmHg 68%
23:00 -8°C° 0 mm 1 m/S 758 mmHg 70%

9 März, Dienstag

Zeit Temperatur Niederschläge Wind Luftdruck Luftfeuchtigkeit
00:00 -8°C° 0 mm 1 m/S 758 mmHg 70%
01:00 -8°C° 0 mm 1 m/S 759 mmHg 70%
02:00 -8°C° 0 mm 1 m/S 759 mmHg 70%
03:00 -8°C° 0 mm 1 m/S 759 mmHg 70%
04:00 -8°C° 0 mm 2 m/S 758 mmHg 70%
05:00 -8°C° 0 mm 2 m/S 758 mmHg 71%
06:00 -7°C° 0 mm 2 m/S 758 mmHg 69%
07:00 -8°C° 0 mm 3 m/S 758 mmHg 68%
08:00 -8°C° 0 mm 3 m/S 758 mmHg 67%
09:00 -6°C° 0 mm 3 m/S 757 mmHg 63%
10:00 -5°C° 0 mm 4 m/S 757 mmHg 59%
11:00 -4°C° 0 mm 4 m/S 757 mmHg 56%
12:00 -3°C° 0 mm 4 m/S 757 mmHg 53%
13:00 -2°C° 0 mm 4 m/S 757 mmHg 50%
14:00 -2°C° 0 mm 4 m/S 757 mmHg 47%
15:00 -2°C° 0 mm 4 m/S 757 mmHg 49%
16:00 -2°C° 0 mm 4 m/S 756 mmHg 50%
17:00 -2°C° 0 mm 3 m/S 756 mmHg 52%
18:00 -4°C° 0 mm 3 m/S 756 mmHg 56%
19:00 -4°C° 0 mm 3 m/S 756 mmHg 60%
20:00 -5°C° 0 mm 3 m/S 756 mmHg 65%
21:00 -5°C° 0 mm 3 m/S 756 mmHg 70%
22:00 -5°C° 0 mm 3 m/S 756 mmHg 74%
23:00 -5°C° 0 mm 3 m/S 756 mmHg 79%

10 März, Mittwoch

Zeit Temperatur Niederschläge Wind Luftdruck Luftfeuchtigkeit
00:00 -4°C° 0 mm 2 m/S 756 mmHg 81%
01:00 -4°C° 0 mm 2 m/S 756 mmHg 83%
02:00 -5°C° 0 mm 2 m/S 756 mmHg 85%
03:00 -5°C° 0.1 mm 2 m/S 756 mmHg 87%
04:00 -5°C° 0.1 mm 2 m/S 756 mmHg 89%
05:00 -5°C° 0.1 mm 2 m/S 756 mmHg 90%
06:00 -5°C° 0.1 mm 2 m/S 756 mmHg 91%
07:00 -5°C° 0.1 mm 2 m/S 757 mmHg 91%
08:00 -3°C° 0.1 mm 1 m/S 757 mmHg 91%
09:00 -4°C° 0.1 mm 2 m/S 757 mmHg 86%
10:00 -4°C° 0.1 mm 2 m/S 757 mmHg 81%
11:00 -3°C° 0.1 mm 2 m/S 758 mmHg 76%
12:00 -3°C° 0 mm 2 m/S 758 mmHg 74%
13:00 -3°C° 0 mm 2 m/S 758 mmHg 71%
14:00 -2°C° 0 mm 2 m/S 757 mmHg 69%
15:00 -3°C° 0 mm 2 m/S 757 mmHg 71%
16:00 -3°C° 0 mm 2 m/S 757 mmHg 72%
17:00 -3°C° 0 mm 2 m/S 757 mmHg 74%
18:00 -4°C° 0 mm 2 m/S 757 mmHg 77%
19:00 -5°C° 0 mm 3 m/S 757 mmHg 80%
20:00 -6°C° 0 mm 3 m/S 757 mmHg 84%
21:00 -6°C° 0 mm 3 m/S 757 mmHg 86%
22:00 -6°C° 0 mm 3 m/S 757 mmHg 88%
23:00 -7°C° 0 mm 3 m/S 757 mmHg 91%

11 März, Donnerstag

Zeit Temperatur Niederschläge Wind Luftdruck Luftfeuchtigkeit
00:00 -7°C° 0 mm 3 m/S 757 mmHg 91%
01:00 -7°C° 0 mm 3 m/S 756 mmHg 92%
02:00 -7°C° 0 mm 3 m/S 756 mmHg 93%
03:00 -7°C° 0 mm 3 m/S 755 mmHg 92%
04:00 -7°C° 0 mm 3 m/S 755 mmHg 92%
05:00 -8°C° 0 mm 4 m/S 754 mmHg 91%
06:00 -7°C° 0 mm 4 m/S 753 mmHg 89%
07:00 -7°C° 0 mm 5 m/S 753 mmHg 87%
08:00 -6°C° 0 mm 5 m/S 752 mmHg 86%
09:00 -5°C° 0 mm 6 m/S 751 mmHg 86%
10:00 -4°C° 0 mm 6 m/S 750 mmHg 85%
11:00 -4°C° 0 mm 6 m/S 749 mmHg 85%
12:00 -3°C° 0.6 mm 7 m/S 748 mmHg 88%
13:00 -3°C° 0.6 mm 7 m/S 746 mmHg 92%
14:00 -3°C° 0.6 mm 7 m/S 745 mmHg 95%
15:00 -2°C° 1.5 mm 7 m/S 744 mmHg 95%
16:00 -2°C° 1.5 mm 7 m/S 743 mmHg 96%
17:00 -1°C° 1.5 mm 7 m/S 742 mmHg 96%
18:00 -1°C° 1.3 mm 7 m/S 741 mmHg 95%
19:00 +1°C° 1.3 mm 6 m/S 740 mmHg 94%
20:00 +1°C° 1.3 mm 6 m/S 739 mmHg 94%
21:00 +1°C° 0.3 mm 6 m/S 739 mmHg 93%
22:00 +1°C° 0.3 mm 6 m/S 739 mmHg 93%
23:00 +1°C° 0.3 mm 6 m/S 739 mmHg 93%
Mehr zeigen

Wir brauchen deine Erlaubnis

Meteoprog und unser Service Anbieter werden persönliche Daten aufbewahren, so wie Cookies, Geräte Bezeichnung oder ähnliche Technologien von deinem Gerät und Prozess, so wie Persönliche Daten Inhalte und Werbungen, genauso wie social Media und den Verkehr zu analysieren.

  • Aufbewahrung und/oder Zugang zu deiner Geräte Informationen.

    Cookies, Geräte Bezeichnung oder andere Informationen, können aufbewahrt oder Zugang zu deinem Gerät erhalten, für den Grund, der oben angegeben wird.

  • Personalisierte Werbung und Inhalte, Messungen, Einblick in das Publikum und Produkt Entwicklung.

    Werbungen und Inhalte können personalisiert werden, basierend auf ein Profil. Mehr Daten können besser personalisierte Werbungen und Inhalte hinzufügen. Werbung und Inhalte können gezeigt und gemessen werden. Einblicke über das Publikum, welche die Werbung gesehen haben und den Inhalt, können abgeleitet werden. So wie Daten können genutzt werden, um es zu verbessern oder die Benutzer Erfahrung zu verbessern das System und die Software.

Wenn du “Ich stimme zu” klickst, erlaubst du uns, die Cookies zu benutzen die Geräte Bezeichnung, den Web oder ähnliche Technologien zu benutzen. Deine Settings, können in deinem Gerät bei deinem Browser geändert werden.

Für den bestimmten Zweck, berechtigten Interessen beruhen darauf, mehr als auf den Inhalt. Du kannst mehr darüber in unseren Privaten und Cookie Politik lesen.